Watonga, OK

10:02 PM CST on January 21, 2017 (GMT -0600)
Watonga

Weather History for KJWG - January, 2012

Change the Weather History Date:

Tuesday, January 31, 2012

  Actual Average Record
Temperature  
Mean Temperature 52 °F -  
Max Temperature 62 °F 52 °F 72 °F (1962)
Min Temperature 41 °F 28 °F -4 °F (1979)
Degree Days  
Heating Degree Days 13    
Growing Degree Days 2 (Base 50)    
Moisture  
Dew Point 44 °F    
Average Humidity 75    
Maximum Humidity 100    
Minimum Humidity 37    
Precipitation  
Precipitation 0.00 in - - ()
Sea Level Pressure  
Sea Level Pressure 29.94 in    
Wind  
Wind Speed 17 mph (West)    
Max Wind Speed 32 mph    
Max Gust Speed 44 mph    
Visibility 10 miles    
Events      
Averages and records for this station are not official NWS values.
T = Trace of Precipitation, MM = Missing Value Source: NWS Daily Summary

Daily Weather History Graph

Daily Weather History Graph

Search for Another Location

Airport or City:

Trip Planner

Search our weather history database for the weather conditions in past years. The results will help you decide how hot, cold, wet, or windy it might be!

Date:

Astronomy

Jan. 31, 2012 Rise Set
Actual Time 7:35 AM CST 5:59 PM CST
Civil Twilight 7:08 AM CST 6:26 PM CST
Nautical Twilight 6:37 AM CST 6:57 PM CST
Astronomical Twilight 6:07 AM CST 7:27 PM CST
Moon 11:52 AM CST (1/31) 1:23 AM CST (1/31)
Length of Visible Light 11h 18m
Length of Day
10h 24m
First Quarter, 55% of the Moon is Illuminated
Jan 31
First Quarter
Feb 7
Full
Feb 14
Last Quarter
Feb 21
New
Feb 29
First Quarter

Hourly Weather History & Observations

Time (CST) Temp. Windchill Dew Point Humidity Pressure Visibility Wind Dir Wind Speed Gust Speed Precip Events Conditions
12:15 AM 53.6 °F - 50.0 °F 88% 29.92 in 10.0 mi SSW 18.4 mph 21.9 mph N/A   Clear
12:35 AM 53.6 °F - 50.0 °F 88% 29.92 in 10.0 mi SSW 15.0 mph 19.6 mph N/A   Clear
12:55 AM 53.6 °F - 50.0 °F 88% 29.92 in 10.0 mi SW 18.4 mph 23.0 mph N/A   Clear
1:15 AM 53.6 °F - 50.0 °F 88% 29.92 in 10.0 mi SW 18.4 mph 23.0 mph N/A   Clear
1:35 AM 53.6 °F - 51.8 °F 94% 29.92 in 10.0 mi SSW 17.3 mph 24.2 mph N/A   Clear
1:55 AM 53.6 °F - 51.8 °F 94% 29.91 in 10.0 mi SSW 16.1 mph 23.0 mph N/A   Clear
2:15 AM 53.6 °F - 51.8 °F 94% 29.90 in 10.0 mi SW 20.7 mph 26.5 mph N/A   Clear
2:35 AM 53.6 °F - 51.8 °F 94% 29.90 in 10.0 mi SW 23.0 mph 32.2 mph N/A   Clear
2:55 AM 53.6 °F - 51.8 °F 94% 29.91 in 10.0 mi SW 19.6 mph 29.9 mph N/A   Clear
3:15 AM 53.6 °F - 51.8 °F 94% 29.90 in 10.0 mi SW 18.4 mph 32.2 mph N/A   Scattered Clouds
3:35 AM 53.6 °F - 51.8 °F 94% 29.89 in 10.0 mi SW 20.7 mph 29.9 mph N/A   Scattered Clouds
3:55 AM 53.6 °F - 51.8 °F 94% 29.88 in 10.0 mi SW 27.6 mph 36.8 mph N/A   Scattered Clouds
4:15 AM 53.6 °F - 51.8 °F 94% 29.87 in 10.0 mi SW 28.8 mph 41.4 mph N/A   Mostly Cloudy
4:35 AM 53.6 °F - 51.8 °F 94% 29.86 in 10.0 mi SW 31.1 mph 41.4 mph N/A   Mostly Cloudy
4:55 AM 53.6 °F - 51.8 °F 94% 29.84 in 10.0 mi SW 32.2 mph 43.7 mph N/A   Mostly Cloudy
5:15 AM 53.6 °F - 51.8 °F 94% 29.85 in 10.0 mi SW 28.8 mph 42.6 mph N/A   Mostly Cloudy
5:55 AM 51.8 °F - 51.8 °F 100% 29.87 in 10.0 mi SW 24.2 mph 35.7 mph N/A   Mostly Cloudy
6:15 AM 51.8 °F - 51.8 °F 100% 29.87 in 10.0 mi SW 24.2 mph 32.2 mph N/A   Mostly Cloudy
6:35 AM 51.8 °F - 51.8 °F 100% 29.87 in 10.0 mi SW 21.9 mph 32.2 mph N/A   Mostly Cloudy
6:55 AM 51.8 °F - 51.8 °F 100% 29.87 in 10.0 mi SW 24.2 mph 32.2 mph N/A   Mostly Cloudy
7:15 AM 51.8 °F - 50.0 °F 94% 29.87 in 10.0 mi SW 24.2 mph 32.2 mph N/A   Scattered Clouds
7:35 AM 50.0 °F - 50.0 °F 100% 29.87 in 10.0 mi SW 20.7 mph 29.9 mph N/A   Scattered Clouds
7:55 AM 50.0 °F - 50.0 °F 100% 29.88 in 10.0 mi SW 24.2 mph 33.4 mph N/A   Scattered Clouds
8:15 AM 50.0 °F - 50.0 °F 100% 29.89 in 10.0 mi WSW 19.6 mph 31.1 mph N/A   Clear
8:35 AM 50.0 °F - 50.0 °F 100% 29.90 in 10.0 mi SW 20.7 mph 31.1 mph N/A   Clear
8:55 AM 50.0 °F - 50.0 °F 100% 29.91 in 10.0 mi WSW 17.3 mph 23.0 mph N/A   Clear
9:15 AM 50.0 °F - 50.0 °F 100% 29.92 in 10.0 mi WSW 16.1 mph 21.9 mph N/A   Clear
9:35 AM 50.0 °F - 50.0 °F 100% 29.92 in 10.0 mi WSW 18.4 mph 25.3 mph N/A   Clear
9:55 AM 51.8 °F - 48.2 °F 88% 29.94 in 10.0 mi West 11.5 mph 25.3 mph N/A   Clear
10:15 AM 51.8 °F - 46.4 °F 82% 29.94 in 10.0 mi West 15.0 mph 20.7 mph N/A   Clear
10:35 AM 51.8 °F - 44.6 °F 76% 29.95 in 10.0 mi West 16.1 mph - N/A   Clear
10:55 AM 51.8 °F - 44.6 °F 76% 29.95 in 10.0 mi West 13.8 mph - N/A   Clear
11:15 AM 53.6 °F - 42.8 °F 67% 29.96 in 10.0 mi West 12.7 mph - N/A   Clear
11:35 AM 53.6 °F - 41.0 °F 62% 29.96 in 10.0 mi NW 11.5 mph 18.4 mph N/A   Clear
11:55 AM 53.6 °F - 41.0 °F 62% 29.97 in 10.0 mi NW 10.4 mph - N/A   Clear
12:15 PM 55.4 °F - 37.4 °F 51% 29.98 in 10.0 mi NW 11.5 mph - N/A   Clear
12:55 PM 59.0 °F - 37.4 °F 45% 29.96 in 10.0 mi North 8.1 mph - N/A   Clear
1:15 PM 60.8 °F - 37.4 °F 42% 29.96 in 10.0 mi NNE 10.4 mph - N/A   Clear
1:35 PM 60.8 °F - 35.6 °F 39% 29.97 in 10.0 mi NNE 9.2 mph 16.1 mph N/A   Clear
1:55 PM 60.8 °F - 35.6 °F 39% 29.97 in 10.0 mi NNE 13.8 mph - N/A   Clear
2:15 PM 62.6 °F - 37.4 °F 39% 29.98 in 10.0 mi NNE 11.5 mph - N/A   Clear
2:35 PM 60.8 °F - 37.4 °F 42% 29.97 in 10.0 mi NNE 13.8 mph - N/A   Clear
2:55 PM 60.8 °F - 35.6 °F 39% 29.97 in 10.0 mi NNE 9.2 mph - N/A   Clear
3:15 PM 62.6 °F - 35.6 °F 37% 29.97 in 10.0 mi NE 12.7 mph 17.3 mph N/A   Clear
3:35 PM 62.6 °F - 37.4 °F 39% 29.98 in 10.0 mi NNE 12.7 mph 17.3 mph N/A   Clear
3:55 PM 62.6 °F - 35.6 °F 37% 29.98 in 10.0 mi NNE 11.5 mph 16.1 mph N/A   Clear
4:15 PM 62.6 °F - 35.6 °F 37% 29.98 in 10.0 mi NNE 10.4 mph - N/A   Clear
4:35 PM 62.6 °F - 37.4 °F 39% 29.99 in 10.0 mi NNE 11.5 mph - N/A   Clear
4:55 PM 62.6 °F - 37.4 °F 39% 29.99 in 10.0 mi NNE 12.7 mph - N/A   Clear
5:15 PM 60.8 °F - 37.4 °F 42% 30.00 in 10.0 mi NNE 11.5 mph - N/A   Clear
5:55 PM 59.0 °F - 37.4 °F 45% 30.01 in 10.0 mi NNE 8.1 mph - N/A   Clear
6:55 PM 51.8 °F - 33.8 °F 50% 30.03 in 10.0 mi NNE 4.6 mph - N/A   Clear
7:15 PM 51.8 °F - 33.8 °F 50% 30.03 in 10.0 mi NE 4.6 mph - N/A   Clear
7:35 PM 46.4 °F 43.5 °F 37.4 °F 71% 30.04 in 10.0 mi NE 5.8 mph - N/A   Clear
7:55 PM 44.6 °F - 37.4 °F 76% 30.06 in 10.0 mi Calm Calm - N/A   Clear
8:15 PM 42.8 °F - 37.4 °F 81% 30.06 in 10.0 mi Calm Calm - N/A   Clear
8:35 PM 44.6 °F - 37.4 °F 76% 30.07 in 10.0 mi Calm Calm - N/A   Clear
8:55 PM 42.8 °F 41.1 °F 35.6 °F 76% 30.07 in 10.0 mi NW 3.5 mph - N/A   Clear
9:15 PM 41.0 °F - 35.6 °F 81% 30.08 in 10.0 mi Calm Calm - N/A   Clear
9:35 PM 41.0 °F - 33.8 °F 76% 30.08 in 10.0 mi Calm Calm - N/A   Clear
10:15 PM 41.0 °F - 33.8 °F 76% 30.09 in 10.0 mi Calm Calm - N/A   Clear
10:35 PM 37.4 °F 34.9 °F 35.6 °F 93% 30.10 in 10.0 mi NNW 3.5 mph - N/A   Clear
10:55 PM 41.0 °F - 35.6 °F 81% 30.10 in 10.0 mi Calm Calm - N/A   Clear
11:15 PM 41.0 °F - 35.6 °F 81% 30.11 in 10.0 mi Calm Calm - N/A   Clear
11:35 PM 41.0 °F 38.0 °F 35.6 °F 81% 30.11 in 10.0 mi NW 4.6 mph - N/A   Clear
11:55 PM 39.2 °F - 35.6 °F 87% 30.11 in 10.0 mi Calm Calm - N/A   Clear